weather.gov     
National Weather Service

Terminal Aerodrome Forecast
NWS Homepage
This page is being discontinued on March 12, 2014.
The same data is available at this site. Please update your bookmarks.
Thank you, and we apologize for the inconvenience.
Please send an email to SR-SRH.Webmaster@noaa.gov with any concerns.


Current Version
Previous Version:    01  02  03  04  05  06  07  08  09  10  11  12  13  14  15  16  17  18  19  20  21  22  23  24  25  26  27  28  29  30  
   31  
[Printable]
168
FTUS43 KGRB 221700
TAFMTW
TAF
KMTW 221724Z 2218/2318 22011KT 6SM BR OVC010
     FM230000 20005KT 5SM BR OVC008
     FM230400 19006KT 3SM -DZ BR OVC006
     FM230800 18008KT 1 1/2SM -DZ BR OVC005
      TEMPO 2308/2312 1/2SM -RA FG VV002
     FM231200 18009KT 1 1/2SM -RA BR OVC004
     FM231500 18011KT 2SM -RA BR OVC008=


U.S. Dept. of Commerce
NOAA National Weather Service
1325 East West Highway
Silver Spring, MD 20910
E-mail: w-nws.webmaster@noaa.gov
Page last modified: May 16, 2007
NATIONAL WEATHER SERVICE: for Safety, for Work, for Fun - FOR LIFE